This is the latest recevied weather packets stored in our database for station/object M0JUI-1. If no packets are shown the sender has not sent any weather packets the latest 10 day(s).
| Time | Temp. | Humidity | Pressure | Rain* | Wind** | Luminosity | Snow |
|---|---|---|---|---|---|---|---|
| 1777739379 | 16.11° C | 99% | 1013.2 hPa | 0 mm | - | 82 W/m² | - |
| 1777739078 | 16.11° C | 99% | 1013.4 hPa | 0 mm | - | 98 W/m² | - |
| 1777738778 | 16.67° C | 99% | 1013.3 hPa | 0 mm | - | 113 W/m² | - |
| 1777738476 | 16.67° C | 99% | 1013.4 hPa | 0 mm | - | 118 W/m² | - |
| 1777738178 | 16.67° C | 99% | 1013.4 hPa | 0 mm | - | 127 W/m² | - |
| 1777737878 | 16.67° C | 99% | 1013.4 hPa | 0 mm | - | 138 W/m² | - |
| 1777737578 | 16.67° C | 99% | 1013.5 hPa | 0 mm | - | 145 W/m² | - |
| 1777737272 | 16.67° C | 99% | 1013.7 hPa | 0 mm | - | 159 W/m² | - |
| 1777736966 | 16.67° C | 99% | 1013.5 hPa | 0 mm | - | 180 W/m² | - |
| 1777736666 | 17.22° C | 99% | 1013.6 hPa | 0 mm | - | 189 W/m² | - |
| 1777736364 | 16.67° C | 99% | 1013.7 hPa | 0 mm | - | 203 W/m² | - |
| 1777736066 | 16.67° C | 99% | 1014 hPa | 0 mm | - | 200 W/m² | - |
| 1777735766 | 16.11° C | 99% | 1014 hPa | 0 mm | - | 194 W/m² | - |
| 1777735466 | 16.11° C | 99% | 1014.1 hPa | 0 mm | - | 196 W/m² | - |
| 1777735166 | 16.67° C | 99% | 1014.2 hPa | 0 mm | - | 190 W/m² | - |
| 1777734866 | 16.67° C | 99% | 1014.3 hPa | 0 mm | - | 199 W/m² | - |
| 1777734567 | 16.67° C | 99% | 1014.2 hPa | 0 mm | - | 214 W/m² | - |
| 1777734266 | 16.67° C | 99% | 1014.2 hPa | 0 mm | - | 237 W/m² | - |
| 1777733960 | 16.67° C | 99% | 1014.1 hPa | 0 mm | - | 258 W/m² | - |
| 1777733654 | 16.67° C | 99% | 1014.4 hPa | 0 mm | - | 252 W/m² | - |
| 1777733355 | 16.67° C | 99% | 1014.4 hPa | 0 mm | - | 257 W/m² | - |
| 1777733048 | 17.22° C | 99% | 1014.6 hPa | 0 mm | - | 282 W/m² | - |
| 1777732742 | 17.22° C | 99% | 1014.6 hPa | 0 mm | - | 302 W/m² | - |
| 1777732442 | 17.22° C | 99% | 1014.6 hPa | 0 mm | - | 342 W/m² | - |
| 1777732136 | 16.67° C | 99% | 1014.6 hPa | 0 mm | - | 345 W/m² | - |
* Rain latest hour (hover to see other rain measurements)
** Current wind speed in m/s (hover to see current wind gust speed)